• In Czech Republic
  • List of Countries
  • For 7 days
  • Water Temperature
  • Satellite Maps
  • Weather Map
  • Weather Widgets
  • user-avatar
    Login

    Hourly Weather Bristol

    Today, 23 October, Monday

    Time Temperature Precipitation Wind Pressure Humidity
    00:00 +10°C° 0 mm 4 mps 762 mmHg 92%
    01:00 +10°C° 0.3 mm 4 mps 762 mmHg 93%
    02:00 +11°C° 0.3 mm 4 mps 761 mmHg 94%
    03:00 +11°C° 0.3 mm 4 mps 761 mmHg 94%
    04:00 +11°C° 0.4 mm 4 mps 761 mmHg 94%
    05:00 +12°C° 0.4 mm 5 mps 761 mmHg 94%
    06:00 +12°C° 0.4 mm 5 mps 760 mmHg 94%
    07:00 +13°C° 0.2 mm 5 mps 760 mmHg 94%
    08:00 +14°C° 0.2 mm 5 mps 760 mmHg 94%
    09:00 +14°C° 0.2 mm 5 mps 760 mmHg 94%
    10:00 +15°C° 0.1 mm 5 mps 760 mmHg 93%
    11:00 +15°C° 0.1 mm 5 mps 760 mmHg 92%
    12:00 +16°C° 0.1 mm 5 mps 760 mmHg 91%
    13:00 +16°C° 0 mm 5 mps 760 mmHg 91%
    14:00 +16°C° 0 mm 5 mps 760 mmHg 90%
    15:00 +16°C° 0 mm 5 mps 760 mmHg 90%
    16:00 +17°C° 0 mm 4 mps 761 mmHg 91%
    17:00 +15°C° 0 mm 4 mps 761 mmHg 92%
    18:00 +14°C° 0 mm 3 mps 761 mmHg 94%
    19:00 +14°C° 0 mm 3 mps 761 mmHg 95%
    20:00 +14°C° 0 mm 3 mps 762 mmHg 95%
    21:00 +14°C° 0 mm 3 mps 762 mmHg 96%
    22:00 +15°C° 0.1 mm 4 mps 762 mmHg 96%
    23:00 +15°C° 0.1 mm 4 mps 761 mmHg 97%

    Tomorrow, 24 October, Tuesday

    Time Temperature Precipitation Wind Pressure Humidity
    00:00 +15°C° 0.1 mm 4 mps 761 mmHg 97%
    01:00 +16°C° 0.3 mm 5 mps 761 mmHg 96%
    02:00 +16°C° 0.3 mm 6 mps 761 mmHg 95%
    03:00 +16°C° 0.3 mm 6 mps 761 mmHg 94%
    04:00 +16°C° 0.1 mm 6 mps 761 mmHg 94%
    05:00 +16°C° 0.1 mm 6 mps 761 mmHg 93%
    06:00 +16°C° 0.1 mm 6 mps 761 mmHg 92%
    07:00 +16°C° 0 mm 7 mps 761 mmHg 92%
    08:00 +16°C° 0 mm 7 mps 761 mmHg 91%
    09:00 +16°C° 0 mm 7 mps 761 mmHg 90%
    10:00 +17°C° 0 mm 7 mps 761 mmHg 89%
    11:00 +17°C° 0 mm 7 mps 761 mmHg 88%
    12:00 +17°C° 0 mm 7 mps 761 mmHg 87%
    13:00 +17°C° 0 mm 7 mps 761 mmHg 87%
    14:00 +17°C° 0 mm 7 mps 761 mmHg 87%
    15:00 +17°C° 0 mm 7 mps 760 mmHg 87%
    16:00 +16°C° 0 mm 7 mps 760 mmHg 88%
    17:00 +16°C° 0 mm 7 mps 760 mmHg 88%
    18:00 +16°C° 0 mm 7 mps 760 mmHg 88%
    19:00 +16°C° 0.1 mm 7 mps 760 mmHg 89%
    20:00 +15°C° 0.1 mm 7 mps 760 mmHg 89%
    21:00 +15°C° 0.1 mm 7 mps 760 mmHg 90%
    22:00 +15°C° 0.1 mm 7 mps 760 mmHg 90%
    23:00 +15°C° 0.1 mm 7 mps 760 mmHg 90%

    Day after tomorrow, 25 October, Wednesday

    Time Temperature Precipitation Wind Pressure Humidity
    00:00 +15°C° 0.1 mm 7 mps 760 mmHg 91%
    01:00 +15°C° 0.2 mm 7 mps 761 mmHg 91%
    02:00 +15°C° 0.2 mm 6 mps 761 mmHg 92%
    03:00 +15°C° 0.2 mm 6 mps 761 mmHg 92%
    04:00 +15°C° 0 mm 5 mps 761 mmHg 93%
    05:00 +15°C° 0 mm 4 mps 762 mmHg 94%
    06:00 +14°C° 0 mm 3 mps 762 mmHg 95%
    07:00 +14°C° 0 mm 3 mps 762 mmHg 93%
    08:00 +16°C° 0 mm 3 mps 763 mmHg 92%
    09:00 +16°C° 0 mm 2 mps 763 mmHg 90%
    10:00 +16°C° 0 mm 3 mps 764 mmHg 87%
    11:00 +17°C° 0 mm 3 mps 764 mmHg 84%
    12:00 +18°C° 0 mm 3 mps 764 mmHg 81%
    13:00 +18°C° 0 mm 3 mps 764 mmHg 81%
    14:00 +18°C° 0 mm 3 mps 764 mmHg 81%
    15:00 +18°C° 0 mm 3 mps 764 mmHg 82%
    16:00 +17°C° 0 mm 2 mps 764 mmHg 85%
    17:00 +16°C° 0 mm 2 mps 764 mmHg 89%
    18:00 +15°C° 0 mm 2 mps 764 mmHg 93%
    19:00 +15°C° 0.1 mm 2 mps 764 mmHg 93%
    20:00 +15°C° 0.1 mm 2 mps 765 mmHg 92%
    21:00 +16°C° 0.1 mm 2 mps 765 mmHg 92%
    22:00 +15°C° 0.1 mm 2 mps 765 mmHg 92%
    23:00 +15°C° 0.1 mm 2 mps 765 mmHg 93%

    26 October, Thursday

    Time Temperature Precipitation Wind Pressure Humidity
    00:00 +15°C° 0.1 mm 2 mps 765 mmHg 93%
    01:00 +15°C° 0 mm 2 mps 765 mmHg 93%
    02:00 +15°C° 0 mm 2 mps 765 mmHg 94%
    03:00 +14°C° 0 mm 2 mps 765 mmHg 94%
    04:00 +14°C° 0 mm 2 mps 765 mmHg 95%
    05:00 +14°C° 0 mm 2 mps 765 mmHg 95%
    06:00 +14°C° 0 mm 2 mps 765 mmHg 96%
    07:00 +14°C° 0 mm 2 mps 766 mmHg 95%
    08:00 +15°C° 0 mm 2 mps 766 mmHg 93%
    09:00 +15°C° 0 mm 2 mps 766 mmHg 92%
    10:00 +16°C° 0 mm 2 mps 766 mmHg 89%
    11:00 +17°C° 0 mm 3 mps 766 mmHg 86%
    12:00 +17°C° 0 mm 3 mps 767 mmHg 83%
    13:00 +17°C° 0 mm 3 mps 766 mmHg 82%
    14:00 +17°C° 0 mm 2 mps 766 mmHg 81%
    15:00 +17°C° 0 mm 2 mps 766 mmHg 80%
    16:00 +16°C° 0 mm 2 mps 766 mmHg 84%
    17:00 +15°C° 0 mm 2 mps 766 mmHg 88%
    18:00 +14°C° 0 mm 1 mps 766 mmHg 92%
    19:00 +14°C° 0 mm 1 mps 766 mmHg 93%
    20:00 +14°C° 0 mm 1 mps 767 mmHg 93%
    21:00 +14°C° 0 mm 1 mps 767 mmHg 94%
    22:00 +13°C° 0 mm 1 mps 767 mmHg 94%
    23:00 +13°C° 0 mm 1 mps 767 mmHg 95%

    27 October, Friday

    Time Temperature Precipitation Wind Pressure Humidity
    00:00 +13°C° 0 mm 2 mps 767 mmHg 95%
    01:00 +13°C° 0 mm 2 mps 767 mmHg 95%
    02:00 +13°C° 0 mm 2 mps 767 mmHg 95%
    03:00 +13°C° 0 mm 2 mps 767 mmHg 95%
    04:00 +12°C° 0 mm 2 mps 767 mmHg 94%
    05:00 +11°C° 0 mm 3 mps 767 mmHg 93%
    06:00 +11°C° 0 mm 3 mps 768 mmHg 92%
    07:00 +11°C° 0 mm 3 mps 768 mmHg 89%
    08:00 +11°C° 0 mm 4 mps 769 mmHg 87%
    09:00 +11°C° 0 mm 4 mps 770 mmHg 84%
    10:00 +12°C° 0 mm 4 mps 770 mmHg 80%
    11:00 +13°C° 0 mm 4 mps 770 mmHg 75%
    12:00 +14°C° 0 mm 3 mps 770 mmHg 71%
    13:00 +14°C° 0 mm 4 mps 770 mmHg 71%
    14:00 +14°C° 0 mm 4 mps 770 mmHg 71%
    15:00 +14°C° 0 mm 4 mps 770 mmHg 70%
    16:00 +12°C° 0 mm 4 mps 770 mmHg 76%
    17:00 +11°C° 0 mm 3 mps 770 mmHg 82%
    18:00 +10°C° 0 mm 3 mps 770 mmHg 88%
    19:00 +8°C° 0 mm 4 mps 770 mmHg 89%
    20:00 +8°C° 0 mm 4 mps 770 mmHg 89%
    21:00 +7°C° 0 mm 4 mps 770 mmHg 90%
    22:00 +7°C° 0 mm 4 mps 770 mmHg 90%
    23:00 +8°C° 0 mm 5 mps 770 mmHg 90%

    28 October, Saturday

    Time Temperature Precipitation Wind Pressure Humidity
    00:00 +8°C° 0 mm 5 mps 769 mmHg 90%
    01:00 +8°C° 0 mm 5 mps 769 mmHg 89%
    02:00 +8°C° 0 mm 5 mps 769 mmHg 87%
    03:00 +8°C° 0 mm 6 mps 768 mmHg 86%
    04:00 +8°C° 0 mm 5 mps 768 mmHg 84%
    05:00 +8°C° 0 mm 5 mps 768 mmHg 83%
    06:00 +8°C° 0 mm 5 mps 768 mmHg 82%
    07:00 +8°C° 0 mm 5 mps 768 mmHg 80%
    08:00 +9°C° 0 mm 5 mps 769 mmHg 78%
    09:00 +10°C° 0 mm 6 mps 769 mmHg 76%
    10:00 +11°C° 0 mm 6 mps 769 mmHg 74%
    11:00 +13°C° 0 mm 6 mps 769 mmHg 71%
    12:00 +14°C° 0 mm 6 mps 768 mmHg 69%
    13:00 +14°C° 0 mm 6 mps 768 mmHg 70%
    14:00 +14°C° 0 mm 5 mps 768 mmHg 71%
    15:00 +14°C° 0 mm 5 mps 768 mmHg 73%
    16:00 +13°C° 0 mm 5 mps 768 mmHg 77%
    17:00 +11°C° 0 mm 4 mps 768 mmHg 81%
    18:00 +10°C° 0 mm 3 mps 768 mmHg 86%
    19:00 +10°C° 0 mm 3 mps 769 mmHg 87%
    20:00 +9°C° 0 mm 3 mps 769 mmHg 89%
    21:00 +9°C° 0 mm 3 mps 769 mmHg 90%
    22:00 +8°C° 0 mm 3 mps 769 mmHg 91%
    23:00 +8°C° 0 mm 3 mps 769 mmHg 91%

    29 October, Sunday

    Time Temperature Precipitation Wind Pressure Humidity
    00:00 +8°C° 0 mm 3 mps 769 mmHg 91%
    01:00 +8°C° 0 mm 3 mps 769 mmHg 91%
    02:00 +8°C° 0 mm 3 mps 768 mmHg 90%
    03:00 +8°C° 0 mm 3 mps 768 mmHg 90%
    04:00 +8°C° 0 mm 3 mps 768 mmHg 89%
    05:00 +8°C° 0 mm 3 mps 768 mmHg 87%
    06:00 +8°C° 0 mm 3 mps 768 mmHg 85%
    07:00 +8°C° 0 mm 4 mps 768 mmHg 84%
    08:00 +10°C° 0 mm 4 mps 768 mmHg 83%
    09:00 +12°C° 0 mm 5 mps 768 mmHg 82%
    10:00 +13°C° 0 mm 5 mps 768 mmHg 81%
    11:00 +14°C° 0 mm 5 mps 768 mmHg 80%
    12:00 +16°C° 0 mm 6 mps 768 mmHg 79%
    13:00 +16°C° 0 mm 6 mps 767 mmHg 80%
    14:00 +16°C° 0 mm 6 mps 767 mmHg 81%
    15:00 +15°C° 0 mm 6 mps 767 mmHg 81%
    16:00 +15°C° 0 mm 5 mps 767 mmHg 84%
    17:00 +14°C° 0 mm 5 mps 767 mmHg 87%
    18:00 +13°C° 0 mm 5 mps 767 mmHg 90%
    19:00 +13°C° 0 mm 4 mps 767 mmHg 91%
    20:00 +13°C° 0 mm 4 mps 768 mmHg 92%
    21:00 +12°C° 0 mm 4 mps 768 mmHg 93%
    22:00 +12°C° 0 mm 4 mps 768 mmHg 93%
    23:00 +11°C° 0 mm 4 mps 768 mmHg 93%
    Show more